{"data":{"norad_id":69378,"epoch":"2026-09-19T04:28:01.519680Z","epoch_age_seconds":142451,"freshness":"FRESH","line1":"1 69378U 26123AB  26262.18612870  .00039368  00000+0  11703-2 0  9990","line2":"2 69378  53.1554 148.1961 0000678 185.2233 174.8763 15.34395951 16663","mean_motion":15.34395951,"eccentricity":6.78e-5,"inclination_deg":53.1554,"raan_deg":148.1961,"arg_perigee_deg":185.2233,"mean_anomaly_deg":174.8763,"bstar":0.0011703,"rev_number":1666,"period_min":93.848005728998,"perigee_km":462.25146493063,"apogee_km":463.17908449908,"semimajor_km":6840.8522747149,"source":"CELESTRAK","updated_at":"2026-09-20T09:00:44.193189Z"}}